Location: *
(46.1866°S, 178.5290°W)
Time: 10:41:40
(UTC+00:00)

SMAP - Pass Details

Date: 19 May 2021
Orbit: 681 x 683 km, 98.1° (Epoch: 14 June)

Event Time Altitude Azimuth Distance (km) Brightness Sun altitude
Exits shadow 05:43:10 - 156° (SSE) 2,585 5.7 -12.9°
Reaches altitude 10° 05:44:17 10° 152° (SSE) 2,165 5.2 -13.1°
Maximum altitude 05:48:43 39° 83° (E) 1,041 3.5 -13.8°
Drops below altitude 10° 05:53:06 10° 13° (NNE) 2,137 5.6 -14.6°
Sets 05:55:27 0° 5° (N) 3,044 6.5 -15.0°
